| time (UTC) | temp F | wind direction | speed knots | gust knots | rain 1hr in | rain 24hr in | rain mn in | humidity % | barometer mb |
| 20260506115148 | 55 | 0 | 0.0 | 2.6 | 0.00 | 0.00 | 0.00 | 82 | 1015.9 |
| 20260506114648 | 55 | 116 | 0.0 | 2.6 | 0.00 | 0.00 | 0.00 | 82 | 1015.9 |
| 20260506114150 | 55 | 238 | 0.0 | 2.6 | 0.00 | 0.00 | 0.00 | 82 | 1015.8 |
| 20260506113648 | 55 | 0 | 0.9 | 0.9 | 0.00 | 0.00 | 0.00 | 82 | 1015.8 |
| 20260506113148 | 55 | 0 | 0.0 | 0.0 | 0.00 | 0.00 | 0.00 | 82 | 1015.9 |
| 20260506112649 | 55 | 0 | 0.0 | 0.0 | 0.00 | 0.00 | 0.00 | 82 | 1015.9 |
| 20260506112148 | 55 | 0 | 0.0 | 0.0 | 0.00 | 0.00 | 0.00 | 82 | 1015.9 |
| 20260506111648 | 55 | 0 | 0.0 | 0.0 | 0.00 | 0.00 | 0.00 | 82 | 1015.8 |
| 20260506111150 | 55 | 0 | 0.0 | 0.0 | 0.00 | 0.00 | 0.00 | 82 | 1015.8 |
| 20260506110648 | 55 | 0 | 0.0 | 0.0 | 0.00 | 0.00 | 0.00 | 82 | 1015.9 |
| 20260506105649 | 55 | 0 | 0.0 | 6.1 | 0.00 | 0.00 | 0.00 | 82 | 1015.8 |
| 20260506105148 | 55 | 288 | 0.0 | 6.1 | 0.00 | 0.00 | 0.00 | 82 | 1015.8 |
| 20260506104648 | 55 | 299 | 2.6 | 6.1 | 0.00 | 0.00 | 0.00 | 82 | 1015.8 |
| 20260506104150 | 55 | 275 | 1.7 | 3.5 | 0.00 | 0.00 | 0.00 | 82 | 1015.7 |
| 20260506103648 | 55 | 289 | 1.7 | 2.6 | 0.00 | 0.00 | 0.00 | 82 | 1015.7 |
| 20260506103148 | 55 | 299 | 0.9 | 2.6 | 0.00 | 0.00 | 0.00 | 82 | 1015.6 |
| 20260506102649 | 55 | 333 | 0.9 | 2.6 | 0.00 | 0.00 | 0.00 | 82 | 1015.6 |
| 20260506102148 | 55 | 285 | 1.7 | 3.5 | 0.00 | 0.00 | 0.00 | 83 | 1015.5 |
| 20260506101648 | 55 | 277 | 0.9 | 3.5 | 0.00 | 0.00 | 0.00 | 83 | 1015.4 |
| 20260506101150 | 55 | 313 | 0.9 | 3.5 | 0.00 | 0.00 | 0.00 | 83 | 1015.4 |
| 20260506100648 | 55 | 320 | 1.7 | 7.0 | 0.00 | 0.00 | 0.00 | 83 | 1015.3 |
| 20260506100148 | 55 | 316 | 2.6 | 7.0 | 0.00 | 0.00 | 0.00 | 83 | 1015.3 |
| 20260506095649 | 55 | 299 | 3.5 | 7.0 | 0.00 | 0.00 | 0.00 | 83 | 1015.4 |
| 20260506095148 | 55 | 303 | 2.6 | 5.2 | 0.00 | 0.00 | 0.00 | 83 | 1015.3 |
| 20260506094648 | 55 | 278 | 1.7 | 6.1 | 0.00 | 0.00 | 0.00 | 83 | 1015.3 |
| 20260506094150 | 55 | 302 | 2.6 | 6.1 | 0.00 | 0.00 | 0.00 | 83 | 1015.2 |
| 20260506093648 | 55 | 319 | 3.5 | 6.1 | 0.00 | 0.00 | 0.00 | 83 | 1015.1 |
| 20260506093148 | 55 | 320 | 0.9 | 5.2 | 0.00 | 0.00 | 0.00 | 83 | 1015.1 |
| 20260506092649 | 56 | 296 | 1.7 | 5.2 | 0.00 | 0.00 | 0.00 | 83 | 1015.1 |
| 20260506092148 | 55 | 301 | 1.7 | 4.3 | 0.00 | 0.00 | 0.00 | 83 | 1015.1 |
| 20260506091648 | 56 | 0 | 0.0 | 0.0 | 0.00 | 0.00 | 0.00 | 83 | 1015.0 |
| 20260506091149 | 56 | 0 | 0.0 | 0.0 | 0.00 | 0.00 | 0.00 | 83 | 1015.0 |
| 20260506090647 | 55 | 0 | 0.0 | 0.0 | 0.00 | 0.00 | 0.00 | 83 | 1015.0 |
| 20260506085649 | 55 | 0 | 0.0 | 0.0 | 0.00 | 0.01 | 0.00 | 83 | 1014.9 |
| 20260506084648 | 55 | 0 | 0.0 | 0.0 | 0.00 | 0.01 | 0.00 | 83 | 1014.9 |
| 20260506084150 | 56 | 0 | 0.0 | 0.0 | 0.00 | 0.01 | 0.00 | 83 | 1014.9 |
| 20260506083648 | 55 | 0 | 0.0 | 0.0 | 0.00 | 0.01 | 0.00 | 83 | 1014.9 |
| 20260506083147 | 56 | 0 | 0.0 | 0.0 | 0.00 | 0.01 | 0.00 | 83 | 1014.9 |
| 20260506082650 | 56 | 0 | 0.0 | 0.0 | 0.00 | 0.01 | 0.00 | 83 | 1014.9 |
| 20260506082147 | 56 | 0 | 0.0 | 0.0 | 0.00 | 0.01 | 0.00 | 83 | 1014.8 |
| 20260506081648 | 56 | 0 | 0.0 | 0.0 | 0.00 | 0.01 | 0.00 | 83 | 1014.8 |
| 20260506081151 | 56 | 0 | 0.0 | 0.0 | 0.00 | 0.01 | 0.00 | 83 | 1014.7 |
| 20260506080647 | 56 | 0 | 0.0 | 0.0 | 0.00 | 0.01 | 0.00 | 83 | 1014.7 |
| 20260506073147 | 56 | 0 | 0.0 | 0.0 | 0.00 | 0.01 | 0.00 | 83 | 1014.3 |
| 20260506072649 | 56 | 0 | 0.0 | 0.0 | 0.00 | 0.01 | 0.00 | 82 | 1014.2 |
| 20260506072147 | 56 | 0 | 0.0 | 0.0 | 0.00 | 0.01 | 0.00 | 83 | 1014.2 |
| 20260506071647 | 56 | 0 | 0.0 | 0.0 | 0.00 | 0.01 | 0.00 | 83 | 1014.1 |
| 20260506071150 | 56 | 0 | 0.0 | 0.0 | 0.00 | 0.01 | 0.00 | 83 | 1014.1 |
| 20260506070647 | 56 | 0 | 0.0 | 0.0 | 0.00 | 0.01 | 0.00 | 82 | 1014.0 |
| 20260506062147 | 56 | 0 | 0.0 | 0.0 | 0.00 | 0.01 | 0.01 | 82 | 1013.9 |
| 20260506061647 | 56 | 0 | 0.0 | 0.0 | 0.00 | 0.01 | 0.01 | 82 | 1013.9 |
| 20260506061149 | 56 | 0 | 0.0 | 0.0 | 0.00 | 0.01 | 0.01 | 82 | 1013.9 |
| 20260506060147 | 56 | 0 | 0.0 | 0.0 | 0.00 | 0.02 | 0.01 | 82 | 1013.8 |
| 20260506051149 | 56 | 0 | 0.0 | 0.0 | 0.00 | 0.02 | 0.01 | 82 | 1013.9 |
| 20260506050647 | 56 | 0 | 0.0 | 0.0 | 0.00 | 0.02 | 0.01 | 82 | 1014.0 |
| 20260506050147 | 56 | 0 | 0.0 | 0.0 | 0.00 | 0.02 | 0.01 | 82 | 1013.9 |
| 20260506044647 | 57 | 0 | 0.0 | 0.0 | 0.00 | 0.02 | 0.01 | 82 | 1013.8 |
| 20260506044149 | 57 | 0 | 0.0 | 0.0 | 0.00 | 0.02 | 0.01 | 82 | 1013.6 |
| 20260506043647 | 57 | 0 | 0.0 | 0.0 | 0.00 | 0.02 | 0.01 | 82 | 1013.7 |
| 20260506043147 | 57 | 0 | 0.0 | 0.0 | 0.00 | 0.02 | 0.01 | 82 | 1013.6 |
| 20260506042648 | 57 | 0 | 0.0 | 0.0 | 0.00 | 0.02 | 0.01 | 82 | 1013.5 |
| 20260506042147 | 57 | 0 | 0.0 | 0.0 | 0.00 | 0.02 | 0.01 | 82 | 1013.5 |
| 20260506041647 | 57 | 0 | 0.0 | 0.0 | 0.00 | 0.02 | 0.01 | 82 | 1013.6 |
| 20260506041150 | 57 | 0 | 0.0 | 0.0 | 0.00 | 0.02 | 0.01 | 81 | 1013.5 |
| 20260506040647 | 57 | 0 | 0.0 | 0.0 | 0.00 | 0.02 | 0.01 | 81 | 1013.4 |
| 20260506040147 | 57 | 0 | 0.0 | 2.6 | 0.00 | 0.02 | 0.01 | 81 | 1013.3 |
| 20260506035648 | 57 | 0 | 0.0 | 2.6 | 0.00 | 0.02 | 0.01 | 81 | 1013.3 |
| 20260506035147 | 57 | 315 | 0.0 | 2.6 | 0.00 | 0.02 | 0.01 | 81 | 1013.2 |
| 20260506034648 | 57 | 330 | 0.0 | 1.7 | 0.00 | 0.02 | 0.01 | 81 | 1013.2 |
| 20260506034149 | 57 | 336 | 0.9 | 3.5 | 0.00 | 0.02 | 0.01 | 81 | 1013.1 |
| 20260506033648 | 57 | 343 | 0.9 | 3.5 | 0.00 | 0.02 | 0.01 | 81 | 1013.1 |
| 20260506033147 | 57 | 326 | 1.7 | 3.5 | 0.00 | 0.02 | 0.01 | 81 | 1012.9 |
| 20260506032648 | 57 | 324 | 2.6 | 3.5 | 0.00 | 0.02 | 0.01 | 81 | 1012.9 |
| 20260506032147 | 57 | 331 | 1.7 | 4.3 | 0.00 | 0.02 | 0.01 | 81 | 1012.8 |
| 20260506031647 | 57 | 331 | 0.9 | 4.3 | 0.00 | 0.02 | 0.01 | 81 | 1012.8 |
| 20260506031150 | 57 | 329 | 2.6 | 4.3 | 0.00 | 0.02 | 0.01 | 81 | 1012.8 |
| 20260506030648 | 58 | 323 | 1.7 | 3.5 | 0.00 | 0.02 | 0.01 | 81 | 1012.8 |
| 20260506030148 | 58 | 338 | 1.7 | 6.1 | 0.00 | 0.02 | 0.01 | 81 | 1012.7 |
| 20260506025648 | 58 | 320 | 2.6 | 6.1 | 0.00 | 0.02 | 0.01 | 81 | 1012.7 |
| 20260506025148 | 58 | 323 | 2.6 | 6.1 | 0.00 | 0.02 | 0.01 | 80 | 1012.7 |
| 20260506024648 | 58 | 323 | 1.7 | 5.2 | 0.00 | 0.02 | 0.01 | 80 | 1012.6 |
| 20260506024150 | 58 | 313 | 3.5 | 4.3 | 0.00 | 0.02 | 0.01 | 80 | 1012.7 |
| 20260506023648 | 58 | 320 | 2.6 | 6.1 | 0.00 | 0.02 | 0.01 | 81 | 1012.7 |
| 20260506023148 | 58 | 326 | 1.7 | 6.1 | 0.00 | 0.02 | 0.01 | 81 | 1012.6 |
| 20260506022650 | 58 | 351 | 1.7 | 6.1 | 0.00 | 0.02 | 0.01 | 81 | 1012.6 |
| 20260506022147 | 58 | 329 | 3.5 | 6.1 | 0.00 | 0.02 | 0.01 | 81 | 1012.5 |
| 20260506021647 | 58 | 324 | 3.5 | 6.1 | 0.00 | 0.02 | 0.01 | 81 | 1012.6 |
| 20260506021149 | 58 | 336 | 2.6 | 6.1 | 0.00 | 0.02 | 0.01 | 81 | 1012.6 |
| 20260506020648 | 58 | 322 | 2.6 | 7.0 | 0.00 | 0.02 | 0.01 | 81 | 1012.6 |
| 20260506020148 | 58 | 338 | 3.5 | 7.0 | 0.00 | 0.02 | 0.01 | 81 | 1012.6 |
| 20260506015649 | 58 | 320 | 4.3 | 7.0 | 0.00 | 0.02 | 0.01 | 81 | 1012.6 |
| 20260506015148 | 58 | 329 | 3.5 | 7.0 | 0.00 | 0.02 | 0.01 | 81 | 1012.7 |
| 20260506014648 | 58 | 334 | 3.5 | 7.0 | 0.00 | 0.02 | 0.01 | 81 | 1012.6 |
| 20260506014220 | 58 | 319 | 4.3 | 7.0 | 0.00 | 0.02 | 0.01 | 81 | 1012.6 |
| 20260506014149 | 58 | 319 | 4.3 | 7.0 | 0.00 | 0.02 | 0.01 | 81 | 1012.6 |
| 20260506013647 | 58 | 334 | 4.3 | 7.0 | 0.00 | 0.02 | 0.01 | 81 | 1012.6 |
| 20260506013147 | 59 | 316 | 5.2 | 7.0 | 0.00 | 0.02 | 0.01 | 81 | 1012.6 |
| 20260506012649 | 59 | 324 | 5.2 | 7.0 | 0.00 | 0.02 | 0.01 | 81 | 1012.6 |
| 20260506012147 | 59 | 329 | 4.3 | 7.0 | 0.00 | 0.02 | 0.01 | 81 | 1012.6 |
| 20260506011647 | 59 | 351 | 4.3 | 7.0 | 0.00 | 0.02 | 0.01 | 81 | 1012.6 |
| 20260506011149 | 59 | 338 | 4.3 | 7.0 | 0.00 | 0.02 | 0.01 | 81 | 1012.6 |
| 20260506010647 | 59 | 331 | 4.3 | 6.1 | 0.00 | 0.02 | 0.01 | 81 | 1012.6 |
| 20260506005649 | 59 | 333 | 5.2 | 7.0 | 0.00 | 0.02 | 0.01 | 80 | 1012.6 |
| 20260506005149 | 60 | 322 | 4.3 | 7.0 | 0.00 | 0.02 | 0.01 | 81 | 1012.6 |
| 20260506004149 | 60 | 331 | 4.3 | 7.0 | 0.00 | 0.02 | 0.01 | 80 | 1012.6 |
| 20260506003647 | 60 | 316 | 3.5 | 7.0 | 0.00 | 0.02 | 0.01 | 80 | 1012.7 |
| 20260506003148 | 60 | 298 | 3.5 | 7.0 | 0.00 | 0.02 | 0.01 | 80 | 1012.7 |
| 20260506002648 | 60 | 296 | 3.5 | 7.0 | 0.00 | 0.02 | 0.01 | 80 | 1012.7 |
| 20260506002147 | 60 | 291 | 5.2 | 7.0 | 0.00 | 0.02 | 0.01 | 80 | 1012.6 |
| 20260506001648 | 60 | 303 | 4.3 | 7.0 | 0.00 | 0.02 | 0.01 | 80 | 1012.6 |
| 20260506001149 | 60 | 320 | 3.5 | 5.2 | 0.00 | 0.02 | 0.01 | 80 | 1012.6 |
| 20260506000647 | 60 | 310 | 2.6 | 5.2 | 0.00 | 0.02 | 0.01 | 80 | 1012.6 |
| 20260506000148 | 60 | 301 | 3.5 | 7.0 | 0.00 | 0.02 | 0.01 | 80 | 1012.7 |
| 20260505235648 | 60 | 302 | 3.5 | 7.0 | 0.00 | 0.02 | 0.01 | 80 | 1012.7 |
| 20260505235147 | 60 | 306 | 4.3 | 7.0 | 0.00 | 0.02 | 0.01 | 80 | 1012.7 |
| 20260505234647 | 60 | 295 | 5.2 | 6.1 | 0.00 | 0.02 | 0.01 | 80 | 1012.7 |
| 20260505233647 | 60 | 308 | 4.3 | 7.0 | 0.00 | 0.02 | 0.01 | 80 | 1012.8 |
| 20260505233147 | 60 | 333 | 3.5 | 7.0 | 0.00 | 0.02 | 0.01 | 80 | 1012.8 |
| 20260505232648 | 60 | 327 | 4.3 | 7.0 | 0.00 | 0.02 | 0.01 | 80 | 1012.9 |
| 20260505232147 | 61 | 343 | 4.3 | 6.1 | 0.00 | 0.02 | 0.01 | 80 | 1012.8 |
| 20260505231647 | 61 | 343 | 4.3 | 7.0 | 0.00 | 0.02 | 0.01 | 80 | 1012.9 |
| 20260505231149 | 61 | 330 | 4.3 | 7.0 | 0.00 | 0.02 | 0.01 | 80 | 1012.9 |
| 20260505230647 | 61 | 299 | 3.5 | 7.0 | 0.00 | 0.02 | 0.01 | 80 | 1012.9 |
| 20260505230147 | 61 | 298 | 3.5 | 6.1 | 0.00 | 0.02 | 0.01 | 80 | 1013.0 |
| 20260505225648 | 61 | 301 | 3.5 | 6.1 | 0.00 | 0.02 | 0.01 | 80 | 1013.0 |
| 20260505225147 | 61 | 302 | 3.5 | 6.1 | 0.00 | 0.02 | 0.01 | 80 | 1013.0 |
| 20260505224647 | 61 | 316 | 3.5 | 6.1 | 0.00 | 0.02 | 0.01 | 80 | 1013.1 |
| 20260505224149 | 61 | 303 | 2.6 | 6.1 | 0.00 | 0.02 | 0.01 | 80 | 1013.1 |
| 20260505223648 | 61 | 281 | 4.3 | 6.1 | 0.00 | 0.02 | 0.01 | 80 | 1013.1 |
| 20260505223147 | 61 | 281 | 2.6 | 5.2 | 0.00 | 0.02 | 0.01 | 80 | 1013.1 |
| 20260505222648 | 61 | 294 | 4.3 | 5.2 | 0.00 | 0.02 | 0.01 | 80 | 1013.1 |
| 20260505222147 | 61 | 275 | 3.5 | 6.1 | 0.00 | 0.02 | 0.01 | 80 | 1013.1 |
| 20260505221647 | 61 | 306 | 3.5 | 6.1 | 0.00 | 0.02 | 0.01 | 80 | 1013.0 |
| 20260505221149 | 61 | 289 | 2.6 | 6.1 | 0.00 | 0.02 | 0.01 | 80 | 1013.0 |
| 20260505220147 | 61 | 298 | 4.3 | 6.1 | 0.00 | 0.02 | 0.01 | 80 | 1013.1 |
| 20260505215648 | 61 | 295 | 3.5 | 6.1 | 0.00 | 0.02 | 0.01 | 80 | 1013.1 |
| 20260505215147 | 60 | 288 | 4.3 | 5.2 | 0.00 | 0.02 | 0.01 | 80 | 1013.2 |
| 20260505214647 | 61 | 292 | 2.6 | 5.2 | 0.00 | 0.02 | 0.01 | 80 | 1013.2 |
| 20260505214150 | 60 | 316 | 2.6 | 5.2 | 0.00 | 0.02 | 0.01 | 81 | 1013.1 |
| 20260505213647 | 60 | 288 | 4.3 | 5.2 | 0.00 | 0.02 | 0.01 | 81 | 1013.2 |
| 20260505213148 | 60 | 310 | 3.5 | 4.3 | 0.00 | 0.02 | 0.01 | 81 | 1013.2 |
| 20260505212649 | 60 | 295 | 2.6 | 3.5 | 0.00 | 0.02 | 0.01 | 80 | 1013.3 |
| 20260505212147 | 60 | 303 | 2.6 | 4.3 | 0.00 | 0.02 | 0.01 | 79 | 1013.2 |
| 20260505211647 | 60 | 288 | 2.6 | 4.3 | 0.00 | 0.02 | 0.01 | 80 | 1013.2 |
| 20260505211150 | 60 | 294 | 0.9 | 4.3 | 0.00 | 0.02 | 0.01 | 80 | 1013.2 |
| 20260505210647 | 60 | 302 | 2.6 | 5.2 | 0.00 | 0.02 | 0.01 | 81 | 1013.2 |
| 20260505210147 | 60 | 298 | 3.5 | 5.2 | 0.00 | 0.02 | 0.01 | 81 | 1013.3 |
| 20260505205648 | 60 | 288 | 3.5 | 5.2 | 0.00 | 0.02 | 0.01 | 81 | 1013.2 |
| 20260505205147 | 60 | 280 | 3.5 | 4.3 | 0.00 | 0.02 | 0.01 | 81 | 1013.2 |
| 20260505204647 | 59 | 282 | 2.6 | 3.5 | 0.00 | 0.02 | 0.01 | 82 | 1013.3 |
| 20260505204149 | 59 | 280 | 2.6 | 3.5 | 0.00 | 0.02 | 0.01 | 81 | 1013.3 |
| 20260505203647 | 59 | 282 | 1.7 | 2.6 | 0.00 | 0.02 | 0.01 | 81 | 1013.3 |
| 20260505203147 | 59 | 296 | 0.9 | 4.3 | 0.00 | 0.02 | 0.01 | 81 | 1013.4 |
| 20260505202648 | 59 | 299 | 2.6 | 4.3 | 0.00 | 0.02 | 0.01 | 81 | 1013.3 |
| 20260505202147 | 59 | 277 | 0.9 | 4.3 | 0.00 | 0.02 | 0.01 | 81 | 1013.3 |
| 20260505201647 | 59 | 303 | 0.0 | 3.5 | 0.00 | 0.02 | 0.01 | 81 | 1013.3 |
| 20260505201149 | 59 | 309 | 0.9 | 2.6 | 0.00 | 0.02 | 0.01 | 81 | 1013.3 |
| 20260505200648 | 59 | 263 | 0.0 | 2.6 | 0.00 | 0.02 | 0.01 | 81 | 1013.3 |
| 20260505200148 | 59 | 267 | 0.9 | 2.6 | 0.00 | 0.02 | 0.01 | 81 | 1013.3 |
| 20260505195648 | 59 | 235 | 0.9 | 3.5 | 0.00 | 0.02 | 0.01 | 82 | 1013.3 |
| 20260505195148 | 59 | 277 | 0.9 | 3.5 | 0.00 | 0.02 | 0.01 | 82 | 1013.3 |
| 20260505194648 | 58 | 268 | 0.9 | 3.5 | 0.00 | 0.02 | 0.01 | 82 | 1013.3 |
| 20260505194149 | 58 | 291 | 0.0 | 2.6 | 0.00 | 0.02 | 0.01 | 82 | 1013.4 |
| 20260505193647 | 58 | 274 | 1.7 | 2.6 | 0.00 | 0.02 | 0.01 | 82 | 1013.3 |
| 20260505193147 | 58 | 224 | 0.9 | 3.5 | 0.00 | 0.02 | 0.01 | 83 | 1013.3 |
| 20260505192648 | 58 | 259 | 1.7 | 3.5 | 0.00 | 0.02 | 0.01 | 83 | 1013.3 |
| 20260505192148 | 58 | 287 | 1.7 | 3.5 | 0.00 | 0.02 | 0.01 | 83 | 1013.3 |
| 20260505191647 | 58 | 287 | 0.0 | 2.6 | 0.00 | 0.02 | 0.01 | 83 | 1013.3 |
| 20260505191150 | 58 | 282 | 1.7 | 2.6 | 0.00 | 0.02 | 0.01 | 83 | 1013.3 |
| 20260505190649 | 58 | 267 | 2.6 | 3.5 | 0.00 | 0.02 | 0.01 | 84 | 1013.3 |
| 20260505190147 | 57 | 288 | 0.9 | 3.5 | 0.00 | 0.02 | 0.01 | 84 | 1013.2 |
| 20260505185648 | 57 | 222 | 0.0 | 3.5 | 0.00 | 0.02 | 0.01 | 84 | 1013.2 |
| 20260505185147 | 57 | 197 | 0.9 | 2.6 | 0.00 | 0.02 | 0.01 | 84 | 1013.2 |
| 20260505184149 | 57 | 243 | 0.9 | 2.6 | 0.00 | 0.02 | 0.01 | 84 | 1013.2 |
| 20260505183647 | 57 | 221 | 0.9 | 0.9 | 0.00 | 0.02 | 0.01 | 85 | 1013.1 |
| 20260505183148 | 57 | 182 | 0.0 | 2.6 | 0.00 | 0.02 | 0.01 | 85 | 1013.1 |
| 20260505182648 | 57 | 196 | 0.0 | 2.6 | 0.00 | 0.02 | 0.01 | 85 | 1013.0 |
| 20260505182147 | 56 | 165 | 0.0 | 2.6 | 0.00 | 0.02 | 0.01 | 85 | 1013.0 |
| 20260505181647 | 56 | 253 | 0.0 | 2.6 | 0.00 | 0.02 | 0.01 | 85 | 1012.9 |
| 20260505181149 | 56 | 186 | 0.0 | 2.6 | 0.00 | 0.02 | 0.01 | 85 | 1012.9 |
| 20260505180647 | 56 | 207 | 0.9 | 8.7 | 0.00 | 0.02 | 0.01 | 85 | 1012.9 |
| 20260505180147 | 56 | 186 | 1.7 | 8.7 | 0.00 | 0.02 | 0.01 | 85 | 1012.9 |
| 20260505175648 | 56 | 168 | 0.9 | 8.7 | 0.00 | 0.02 | 0.01 | 85 | 1012.9 |
| 20260505175146 | 56 | 232 | 5.2 | 5.2 | 0.00 | 0.02 | 0.01 | 85 | 1012.9 |
| 20260505174647 | 56 | 187 | 2.6 | 5.2 | 0.00 | 0.02 | 0.01 | 85 | 1012.9 |
| 20260505173647 | 56 | 247 | 1.7 | 5.2 | 0.00 | 0.02 | 0.01 | 85 | 1012.9 |
| 20260505173148 | 56 | 226 | 0.0 | 5.2 | 0.00 | 0.02 | 0.01 | 85 | 1012.8 |
| 20260505172648 | 56 | 203 | 0.9 | 5.2 | 0.00 | 0.02 | 0.01 | 86 | 1012.8 |
| 20260505172146 | 56 | 254 | 1.7 | 3.5 | 0.00 | 0.02 | 0.01 | 86 | 1012.6 |
| 20260505171647 | 56 | 208 | 0.0 | 3.5 | 0.00 | 0.02 | 0.01 | 86 | 1012.6 |
| 20260505171147 | 56 | 196 | 0.9 | 2.6 | 0.00 | 0.02 | 0.01 | 86 | 1012.5 |
| 20260505170647 | 56 | 205 | 0.0 | 2.6 | 0.00 | 0.02 | 0.01 | 86 | 1012.4 |
| 20260505170147 | 56 | 222 | 0.0 | 1.7 | 0.00 | 0.02 | 0.01 | 86 | 1012.5 |
| 20260505165147 | 56 | 261 | 0.9 | 3.5 | 0.00 | 0.02 | 0.01 | 86 | 1012.5 |
| 20260505164147 | 56 | 243 | 0.0 | 3.5 | 0.00 | 0.02 | 0.01 | 86 | 1012.5 |
| 20260505163648 | 56 | 211 | 1.7 | 3.5 | 0.00 | 0.02 | 0.01 | 86 | 1012.4 |
| 20260505163147 | 56 | 278 | 0.9 | 3.5 | 0.00 | 0.02 | 0.01 | 86 | 1012.4 |
| 20260505162646 | 56 | 166 | 0.0 | 3.5 | 0.00 | 0.02 | 0.01 | 86 | 1012.3 |
| 20260505162147 | 56 | 222 | 0.9 | 5.2 | 0.00 | 0.02 | 0.01 | 86 | 1012.3 |
| 20260505161646 | 56 | 249 | 0.9 | 5.2 | 0.00 | 0.02 | 0.01 | 86 | 1012.3 |
| 20260505161149 | 56 | 243 | 0.0 | 5.2 | 0.00 | 0.02 | 0.01 | 87 | 1012.2 |
| 20260505160647 | 56 | 205 | 0.9 | 2.6 | 0.00 | 0.02 | 0.01 | 87 | 1012.1 |
| 20260505160147 | 56 | 236 | 0.9 | 4.3 | 0.00 | 0.02 | 0.01 | 87 | 1012.2 |
| 20260505153147 | 56 | 155 | 0.0 | 0.9 | 0.00 | 0.02 | 0.01 | 88 | 1012.1 |
| 20260505152147 | 56 | 99 | 0.0 | 6.1 | 0.00 | 0.02 | 0.01 | 88 | 1012.1 |
| 20260505151647 | 55 | 172 | 0.0 | 6.1 | 0.00 | 0.02 | 0.01 | 88 | 1012.1 |
| 20260505150647 | 55 | 186 | 0.9 | 2.6 | 0.00 | 0.02 | 0.01 | 88 | 1012.1 |
| 20260505150147 | 55 | 110 | 0.0 | 4.3 | 0.00 | 0.02 | 0.01 | 88 | 1012.0 |
| 20260505140147 | 54 | 154 | 0.0 | 1.7 | 0.00 | 0.02 | 0.01 | 88 | 1011.7 |
| 20260505124647 | 54 | 133 | 0.9 | 2.6 | 0.00 | 0.02 | 0.01 | 88 | 1011.1 |
| 20260505124149 | 54 | 112 | 0.0 | 2.6 | 0.00 | 0.02 | 0.01 | 88 | 1011.1 |
| 20260505123648 | 54 | 149 | 0.9 | 2.6 | 0.00 | 0.02 | 0.01 | 88 | 1011.0 |
| 20260505123147 | 54 | 148 | 0.0 | 3.5 | 0.00 | 0.02 | 0.01 | 88 | 1011.0 |
| 20260505122648 | 54 | 140 | 0.0 | 3.5 | 0.00 | 0.02 | 0.01 | 88 | 1011.0 |
| 20260505122146 | 54 | 163 | 0.9 | 3.5 | 0.00 | 0.02 | 0.01 | 88 | 1011.0 |
| 20260505121149 | 54 | 105 | 0.9 | 2.6 | 0.00 | 0.02 | 0.01 | 88 | 1011.0 |
| 20260505120147 | 54 | 77 | 0.9 | 2.6 | 0.00 | 0.02 | 0.01 | 88 | 1011.0 |
| 20260505115648 | 54 | 95 | 0.0 | 3.5 | 0.00 | 0.02 | 0.01 | 88 | 1011.0 |